TimeMST,TemperatureF,Dew PointF,Humidity,Sea Level PressureIn,VisibilityMPH,Wind Direction,Wind SpeedMPH,Gust SpeedMPH,PrecipitationIn,Events,Conditions,WindDirDegrees,DateUTC
12:51 AM,53.1,35.1,50,29.90,10.0,East,3.5,-,N/A,,Scattered Clouds,90,2012-12-09 07:51:00
1:51 AM,52.0,34.0,50,29.91,10.0,ESE,5.8,-,N/A,,Scattered Clouds,110,2012-12-09 08:51:00
2:51 AM,51.1,34.0,52,29.91,10.0,East,6.9,-,N/A,,Scattered Clouds,100,2012-12-09 09:51:00
3:51 AM,50.0,34.0,54,29.91,10.0,East,6.9,-,N/A,,Scattered Clouds,90,2012-12-09 10:51:00
4:51 AM,48.9,33.1,54,29.91,10.0,East,6.9,-,N/A,,Partly Cloudy,100,2012-12-09 11:51:00
5:51 AM,48.0,34.0,58,29.93,10.0,East,5.8,-,N/A,,Partly Cloudy,90,2012-12-09 12:51:00
6:51 AM,48.0,34.0,58,29.94,10.0,ESE,4.6,-,N/A,,Partly Cloudy,110,2012-12-09 13:51:00
7:51 AM,48.0,32.0,54,29.95,10.0,East,9.2,-,N/A,,Partly Cloudy,80,2012-12-09 14:51:00
8:51 AM,52.0,32.0,47,29.96,10.0,ESE,6.9,-,N/A,,Partly Cloudy,110,2012-12-09 15:51:00
9:51 AM,55.9,32.0,40,29.98,10.0,East,8.1,-,N/A,,Partly Cloudy,100,2012-12-09 16:51:00
10:51 AM,59.0,32.0,36,29.99,10.0,East,3.5,-,N/A,,Partly Cloudy,100,2012-12-09 17:51:00
11:51 AM,63.0,30.9,30,29.98,10.0,Calm,Calm,-,N/A,,Scattered Clouds,0,2012-12-09 18:51:00
12:51 PM,64.9,30.9,28,29.96,10.0,South,3.5,-,N/A,,Mostly Cloudy,190,2012-12-09 19:51:00
1:51 PM,68.0,28.0,22,29.93,10.0,West,9.2,-,N/A,,Mostly Cloudy,270,2012-12-09 20:51:00
2:51 PM,68.0,26.1,21,29.91,10.0,West,11.5,-,N/A,,Mostly Cloudy,270,2012-12-09 21:51:00
3:51 PM,69.1,25.0,19,29.93,10.0,WNW,8.1,-,N/A,,Overcast,290,2012-12-09 22:51:00
4:51 PM,69.1,26.1,20,29.93,10.0,West,11.5,-,N/A,,Mostly Cloudy,260,2012-12-09 23:51:00
5:51 PM,66.9,26.1,21,29.95,10.0,WNW,8.1,-,N/A,,Mostly Cloudy,300,2012-12-10 00:51:00
6:51 PM,66.0,27.0,23,29.97,10.0,North,5.8,-,N/A,,Mostly Cloudy,10,2012-12-10 01:51:00
7:51 PM,63.0,28.0,27,30.00,10.0,North,11.5,-,N/A,,Mostly Cloudy,360,2012-12-10 02:51:00
8:51 PM,62.1,9.0,12,30.02,10.0,North,9.2,-,N/A,,Scattered Clouds,10,2012-12-10 03:51:00
9:51 PM,60.8,12.2,15,30.07,10.0,North,10.4,-,N/A,,Scattered Clouds,360,2012-12-10 04:51:00
10:51 PM,57.0,10.9,16,30.09,10.0,North,10.4,-,N/A,,Scattered Clouds,10,2012-12-10 05:51:00
11:51 PM,55.9,10.0,16,30.11,10.0,North,6.9,-,N/A,,Partly Cloudy,10,2012-12-10 06:51:00